• In Latvia
  • List of Countries
  • For 7 days
  • Water Temperature
  • Satellite Maps
  • Weather Map
  • Weather Widgets
  • user-avatar
    Login

    Hourly Weather San Juan

    Today, 19 August, Sunday

    Time Temperature Precipitation Wind Pressure Humidity
    00:00 +6°C° 0 mm 5 mps 714 mmHg 27%
    01:00 +6°C° 0 mm 5 mps 715 mmHg 25%
    02:00 +6°C° 0 mm 5 mps 715 mmHg 25%
    03:00 +5°C° 0 mm 4 mps 716 mmHg 26%
    04:00 +5°C° 0 mm 4 mps 716 mmHg 26%
    05:00 +5°C° 0 mm 4 mps 717 mmHg 27%
    06:00 +5°C° 0 mm 4 mps 717 mmHg 28%
    07:00 +5°C° 0 mm 3 mps 718 mmHg 28%
    08:00 +6°C° 0 mm 4 mps 718 mmHg 28%
    09:00 +7°C° 0 mm 4 mps 718 mmHg 27%
    10:00 +8°C° 0 mm 5 mps 718 mmHg 27%
    11:00 +9°C° 0 mm 5 mps 717 mmHg 26%
    12:00 +9°C° 0 mm 5 mps 716 mmHg 26%
    13:00 +10°C° 0 mm 5 mps 715 mmHg 25%
    14:00 +11°C° 0 mm 4 mps 715 mmHg 26%
    15:00 +11°C° 0 mm 4 mps 715 mmHg 27%
    16:00 +11°C° 0 mm 4 mps 715 mmHg 27%
    17:00 +10°C° 0 mm 3 mps 716 mmHg 30%
    18:00 +9°C° 0 mm 3 mps 717 mmHg 32%
    19:00 +8°C° 0 mm 2 mps 717 mmHg 34%
    20:00 +8°C° 0 mm 2 mps 717 mmHg 36%
    21:00 +8°C° 0 mm 1 mps 717 mmHg 37%
    22:00 +8°C° 0 mm 1 mps 718 mmHg 38%
    23:00 +7°C° 0 mm 1 mps 717 mmHg 39%

    Tomorrow, 20 August, Monday

    Time Temperature Precipitation Wind Pressure Humidity
    00:00 +7°C° 0 mm 1 mps 716 mmHg 40%
    01:00 +6°C° 0 mm 1 mps 716 mmHg 41%
    02:00 +6°C° 0 mm 1 mps 715 mmHg 42%
    03:00 +6°C° 0 mm 1 mps 715 mmHg 42%
    04:00 +5°C° 0 mm 1 mps 714 mmHg 42%
    05:00 +6°C° 0 mm 1 mps 714 mmHg 40%
    06:00 +7°C° 0 mm 1 mps 714 mmHg 38%
    07:00 +7°C° 0 mm 1 mps 714 mmHg 36%
    08:00 +9°C° 0 mm 1 mps 714 mmHg 32%
    09:00 +9°C° 0 mm 2 mps 713 mmHg 28%
    10:00 +12°C° 0 mm 2 mps 713 mmHg 24%
    11:00 +13°C° 0 mm 2 mps 712 mmHg 22%
    12:00 +14°C° 0 mm 2 mps 711 mmHg 20%
    13:00 +15°C° 0 mm 2 mps 711 mmHg 18%
    14:00 +15°C° 0 mm 2 mps 710 mmHg 18%
    15:00 +16°C° 0 mm 2 mps 710 mmHg 18%
    16:00 +16°C° 0 mm 1 mps 710 mmHg 18%
    17:00 +14°C° 0 mm 1 mps 710 mmHg 19%
    18:00 +13°C° 0 mm 1 mps 710 mmHg 21%
    19:00 +12°C° 0 mm 1 mps 710 mmHg 23%
    20:00 +12°C° 0 mm 2 mps 710 mmHg 24%
    21:00 +10°C° 0 mm 2 mps 710 mmHg 24%
    22:00 +10°C° 0 mm 3 mps 711 mmHg 24%
    23:00 +10°C° 0 mm 3 mps 710 mmHg 26%

    Day after tomorrow, 21 August, Tuesday

    Time Temperature Precipitation Wind Pressure Humidity
    00:00 +9°C° 0 mm 3 mps 710 mmHg 28%
    01:00 +9°C° 0 mm 3 mps 709 mmHg 30%
    02:00 +9°C° 0 mm 3 mps 709 mmHg 31%
    03:00 +8°C° 0 mm 3 mps 709 mmHg 32%
    04:00 +8°C° 0 mm 3 mps 709 mmHg 33%
    05:00 +9°C° 0 mm 2 mps 709 mmHg 31%
    06:00 +9°C° 0 mm 2 mps 709 mmHg 29%
    07:00 +10°C° 0 mm 2 mps 710 mmHg 26%
    08:00 +13°C° 0 mm 2 mps 710 mmHg 22%
    09:00 +16°C° 0 mm 2 mps 710 mmHg 18%
    10:00 +18°C° 0 mm 2 mps 710 mmHg 14%
    11:00 +19°C° 0 mm 2 mps 710 mmHg 13%
    12:00 +21°C° 0 mm 2 mps 709 mmHg 11%
    13:00 +23°C° 0 mm 2 mps 708 mmHg 9%
    14:00 +23°C° 0 mm 2 mps 708 mmHg 9%
    15:00 +23°C° 0 mm 2 mps 708 mmHg 9%
    16:00 +23°C° 0 mm 2 mps 708 mmHg 8%
    17:00 +20°C° 0 mm 2 mps 708 mmHg 10%
    18:00 +19°C° 0 mm 1 mps 708 mmHg 12%
    19:00 +16°C° 0 mm 1 mps 708 mmHg 14%
    20:00 +16°C° 0 mm 2 mps 708 mmHg 15%
    21:00 +15°C° 0 mm 2 mps 708 mmHg 15%
    22:00 +15°C° 0 mm 2 mps 708 mmHg 16%
    23:00 +14°C° 0 mm 2 mps 708 mmHg 17%

    22 August, Wednesday

    Time Temperature Precipitation Wind Pressure Humidity
    00:00 +14°C° 0 mm 2 mps 708 mmHg 18%
    01:00 +13°C° 0 mm 2 mps 707 mmHg 19%
    02:00 +13°C° 0 mm 2 mps 707 mmHg 20%
    03:00 +12°C° 0 mm 2 mps 706 mmHg 20%
    04:00 +12°C° 0 mm 2 mps 706 mmHg 21%
    05:00 +13°C° 0 mm 2 mps 706 mmHg 20%
    06:00 +13°C° 0 mm 2 mps 706 mmHg 18%
    07:00 +14°C° 0 mm 2 mps 706 mmHg 17%
    08:00 +17°C° 0 mm 3 mps 706 mmHg 14%
    09:00 +19°C° 0 mm 3 mps 705 mmHg 12%
    10:00 +22°C° 0 mm 3 mps 705 mmHg 9%
    11:00 +23°C° 0 mm 4 mps 704 mmHg 8%
    12:00 +26°C° 0 mm 4 mps 703 mmHg 7%
    13:00 +27°C° 0 mm 5 mps 702 mmHg 6%
    14:00 +27°C° 0 mm 5 mps 701 mmHg 6%
    15:00 +27°C° 0 mm 5 mps 700 mmHg 7%
    16:00 +27°C° 0 mm 5 mps 699 mmHg 7%
    17:00 +25°C° 0 mm 4 mps 699 mmHg 10%
    18:00 +22°C° 0 mm 4 mps 699 mmHg 12%
    19:00 +20°C° 0 mm 4 mps 699 mmHg 14%
    20:00 +19°C° 0 mm 4 mps 699 mmHg 15%
    21:00 +19°C° 0 mm 4 mps 699 mmHg 16%
    22:00 +17°C° 0 mm 5 mps 699 mmHg 17%
    23:00 +17°C° 0 mm 5 mps 698 mmHg 18%

    23 August, Thursday

    Time Temperature Precipitation Wind Pressure Humidity
    00:00 +16°C° 0 mm 5 mps 698 mmHg 19%
    01:00 +16°C° 0 mm 5 mps 697 mmHg 20%
    02:00 +16°C° 0 mm 5 mps 697 mmHg 21%
    03:00 +15°C° 0 mm 5 mps 697 mmHg 21%
    04:00 +15°C° 0 mm 5 mps 696 mmHg 22%
    05:00 +15°C° 0 mm 5 mps 697 mmHg 22%
    06:00 +15°C° 0 mm 4 mps 697 mmHg 23%
    07:00 +15°C° 0 mm 4 mps 698 mmHg 23%
    08:00 +17°C° 0 mm 5 mps 698 mmHg 20%
    09:00 +20°C° 0 mm 6 mps 698 mmHg 16%
    10:00 +22°C° 0 mm 7 mps 699 mmHg 13%
    11:00 +23°C° 0 mm 8 mps 698 mmHg 11%
    12:00 +24°C° 0 mm 9 mps 698 mmHg 10%
    13:00 +26°C° 0 mm 9 mps 698 mmHg 8%
    14:00 +26°C° 0 mm 10 mps 698 mmHg 7%
    15:00 +26°C° 0 mm 11 mps 698 mmHg 7%
    16:00 +26°C° 0 mm 12 mps 698 mmHg 7%
    17:00 +23°C° 0 mm 11 mps 699 mmHg 11%
    18:00 +19°C° 0 mm 9 mps 699 mmHg 16%
    19:00 +17°C° 0 mm 8 mps 700 mmHg 21%
    20:00 +16°C° 0 mm 9 mps 701 mmHg 25%
    21:00 +13°C° 0 mm 9 mps 701 mmHg 29%
    22:00 +12°C° 0 mm 9 mps 702 mmHg 33%
    23:00 +11°C° 0 mm 9 mps 703 mmHg 38%

    24 August, Friday

    Time Temperature Precipitation Wind Pressure Humidity
    00:00 +10°C° 0 mm 8 mps 703 mmHg 43%
    01:00 +10°C° 0 mm 8 mps 704 mmHg 48%
    02:00 +9°C° 0.1 mm 8 mps 705 mmHg 49%
    03:00 +7°C° 0.1 mm 9 mps 705 mmHg 50%
    04:00 +7°C° 0.1 mm 9 mps 706 mmHg 52%
    05:00 +7°C° 0.5 mm 9 mps 708 mmHg 54%
    06:00 +6°C° 0.5 mm 8 mps 709 mmHg 56%
    07:00 +6°C° 0.5 mm 8 mps 711 mmHg 58%
    08:00 +7°C° 0.3 mm 8 mps 711 mmHg 55%
    09:00 +9°C° 0.3 mm 7 mps 712 mmHg 52%
    10:00 +10°C° 0.3 mm 7 mps 712 mmHg 49%
    11:00 +11°C° 0.1 mm 7 mps 712 mmHg 46%
    12:00 +11°C° 0.1 mm 6 mps 712 mmHg 43%
    13:00 +13°C° 0.1 mm 5 mps 711 mmHg 40%
    14:00 +13°C° 0 mm 5 mps 711 mmHg 39%
    15:00 +13°C° 0 mm 4 mps 711 mmHg 39%
    16:00 +13°C° 0 mm 4 mps 711 mmHg 38%
    17:00 +12°C° 0 mm 3 mps 712 mmHg 40%
    18:00 +12°C° 0 mm 2 mps 713 mmHg 43%
    19:00 +11°C° 0 mm 1 mps 714 mmHg 45%
    20:00 +11°C° 0 mm 1 mps 714 mmHg 46%
    21:00 +10°C° 0 mm 1 mps 714 mmHg 48%
    22:00 +10°C° 0 mm 1 mps 714 mmHg 50%
    23:00 +9°C° 0 mm 1 mps 714 mmHg 51%
    Show more